Location: Obersdorf
(47.4079°N, 10.2781°E)
Time: 01:26:17
(UTC+01:00)

XW-2C - Pass Details

Date: 09 December 2021
Orbit: 503 x 523 km, 97.5° (Epoch: 16 January)

Event Time Altitude Azimuth Distance (km) Brightness Sun altitude
Rises 06:35:46 0° 10° (N) 2,671 ? -12.7°
Reaches altitude 10° 06:37:53 10° 9° (N) 1,777 ? -12.3°
Maximum altitude 06:41:42 71° 285° (WNW) 558 ? -11.7°
Drops below altitude 10° 06:45:29 10° 202° (SSW) 1,757 ? -11.1°
Sets 06:47:34 0° 200° (SSW) 2,639 ? -10.8°
